This demonstration page uses our WeatherBlox Daily Observations layout. Learn more.

Left ArrowRight Arrow

40.92945, -100.16068

Hourly Observations for May 22, 2020

Temp ( °F °C ) Dew Point ( °F °C ) Humidity (%) Winds ( mph kmh ) Pressure ( in mb ) Visibility ( mi km ) Precip ( " mm )
12:15 am 00:15 Cloudy with Mist and Fog 61 16.1 60 15.7 97 97 ESE 8 13 29.86 1011 4 6.43736 0 0
12:35 am 00:35 Cloudy with Light Rain 61 16.1 60 15.8 98 98 ESE 7 11 29.86 1011 3 4.82802 0 0
12:55 am 00:55 Cloudy with Light Thunderstorms 61 16.1 60 15.8 98 98 Calm 29.86 1011 4 6.43736 0 0
1:15 am 01:15 Cloudy with Thunderstorms 61 16.2 60 15.7 97 97 ESE 9 15 29.86 1011 5 8.0467 0.04 1.016
1:35 am 01:35 Cloudy with Rain 61 16.1 60 15.7 97 97 ESE 12 19 29.86 1011 3 4.82802 0.27 6.858
1:55 am 01:55 Mostly Cloudy 61 16.3 59 15.2 93 93 SE 13 20 29.84 1011 10 16.0934 0.29 7.366
2:15 am 02:15 Partly Cloudy with Nearby Thunderstorms 61 16.2 60 15.5 96 96 SE 10 17 29.84 1010 10 16.0934 0 0
2:35 am 02:35 Clear with Thunderstorms 62 16.6 60 15.5 93 93 SE 13 20 29.83 1010 10 16.0934 0 0
2:55 am 02:55 Mostly Cloudy with Thunderstorms 62 16.5 60 15.5 94 94 ESE 5 7 29.82 1010 10 16.0934 0 0
3:15 am 03:15 Cloudy with Thunderstorms 61 16.2 60 15.5 96 96 SE 7 11 29.82 1010 10 16.0934 0 0
3:35 am 03:35 Cloudy 61 16 60 15.4 96 96 SE 10 17 29.8 1009 7 11.26538 0 0
3:55 am 03:55 Cloudy 61 16.1 60 15.5 96 96 SSE 8 13 29.82 1010 7 11.26538 0 0
4:15 am 04:15 Cloudy 61 16.2 60 15.5 96 96 Calm 29.81 1009 7 11.26538 0 0
4:35 am 04:35 Cloudy with Mist and Fog 61 16 60 15.5 97 97 ESE 6 9 29.8 1009 5 8.0467 0 0
4:55 am 04:55 Mostly Cloudy with Mist and Fog 60 15.6 59 15.1 97 97 SSW 6 9 29.79 1009 5 8.0467 0 0
5:15 am 05:15 Mostly Cloudy with Mist and Fog 60 15.5 59 15.1 97 97 E 3 6 29.79 1009 4 6.43736 0 0
5:35 am 05:35 Partly Cloudy with Thunderstorms 59 15.2 59 14.9 98 98 S 3 6 29.79 1009 5 8.0467 0 0
5:55 am 05:55 Clear with Mist and Fog 59 14.8 58 14.5 98 98 NE 8 13 29.81 1009 4 6.43736 0 0
6:15 am 06:15 Mostly Cloudy with Nearby Thunderstorms 60 15.4 59 15 97 97 E 8 13 29.81 1010 4 6.43736 0 0
6:35 am 06:35 Cloudy with Mist and Fog 60 15.5 59 15 97 97 NNE 3 6 29.82 1010 5 8.0467 0 0
6:55 am 06:55 Cloudy with Mist and Fog 60 15.5 59 15 97 97 Calm 29.81 1010 4 6.43736 0 0
7:15 am 07:15 Cloudy with Mist and Fog 60 15.3 59 15 98 98 N 5 7 29.84 1011 3 4.82802 0 0
7:35 am 07:35 Cloudy with Mist and Fog 60 15.5 59 15 97 97 Calm 29.84 1011 4 6.43736 0 0
7:55 am 07:55 Cloudy with Mist and Fog 60 15.5 59 15 97 97 NNW 3 6 29.84 1011 3 4.82802 0 0
8:15 am 08:15 Cloudy with Mist and Fog 60 15.6 59 15.2 97 97 Calm 29.84 1011 3 4.82802 0 0
8:35 am 08:35 Cloudy with Mist and Fog 60 15.8 60 15.4 97 97 Calm 29.83 1010 3 4.82802 0 0
8:55 am 08:55 Mostly Cloudy with Mist and Fog 61 16 60 15.5 97 97 NE 3 6 29.84 1010 4 6.43736 0 0
9:15 am 09:15 Partly Cloudy with Mist and Fog 61 16.2 60 15.5 96 96 Calm 29.85 1011 4 6.43736 0 0
9:35 am 09:35 Mostly Cloudy with Mist and Fog 61 16.3 60 15.4 94 94 SE 5 7 29.84 1011 5 8.0467 0 0
9:55 am 09:55 Cloudy with Mist and Fog 62 16.5 60 15.5 94 94 SW 3 6 29.84 1011 5 8.0467 0 0
10:15 am 10:15 Mostly Cloudy with Mist and Fog 62 16.6 60 15.5 93 93 Calm 29.83 1010 5 8.0467 0 0
10:35 am 10:35 Mostly Cloudy 62 16.6 60 15.3 92 92 Calm 29.83 1010 7 11.26538 0 0
10:55 am 10:55 Cloudy 62 16.7 60 15.5 93 93 Calm 29.84 1011 7 11.26538 0 0
11:15 am 11:15 Cloudy 62 16.7 60 15.6 93 93 S 3 6 29.84 1011 7 11.26538 0 0
11:35 am 11:35 Cloudy 62 16.7 60 15.6 93 93 SSE 3 6 29.85 1011 7 11.26538 0 0
11:55 am 11:55 Cloudy 62 16.8 60 15.5 92 92 SSE 5 7 29.84 1010 10 16.0934 0 0
12:15 pm 12:15 Cloudy 63 17 60 15.6 92 92 ESE 5 7 29.84 1010 7 11.26538 0 0
12:35 pm 12:35 Cloudy 62 16.7 58 14.5 87 87 ESE 8 13 29.83 1010 10 16.0934 0 0
12:55 pm 12:55 Cloudy with Light Rain 60 15.7 58 14.2 91 91 ENE 8 13 29.85 1011 10 16.0934 0 0
1:15 pm 13:15 Cloudy 60 15.7 57 14 90 90 ENE 7 11 29.85 1011 10 16.0934 0 0
1:35 pm 13:35 Cloudy 61 16 56 13.6 86 86 ENE 7 11 29.85 1011 10 16.0934 0 0
1:55 pm 13:55 Cloudy 61 16 57 13.9 87 87 ESE 6 9 29.84 1010 10 16.0934 0 0
2:15 pm 14:15 Cloudy 61 16 57 13.9 87 87 ESE 7 11 29.82 1010 10 16.0934 0 0
2:35 pm 14:35 Cloudy 61 16.1 58 14.2 89 89 Calm 29.81 1009 10 16.0934 0 0
2:55 pm 14:55 Cloudy 61 16.1 57 14 87 87 Calm 29.81 1009 10 16.0934 0 0
3:15 pm 15:15 Cloudy 61 16.1 57 14.1 88 88 Calm 29.8 1009 10 16.0934 0 0
3:35 pm 15:35 Cloudy 61 16.3 57 13.9 86 86 Calm 29.79 1009 10 16.0934 0 0
3:55 pm 15:55 Cloudy 62 16.4 57 13.8 85 85 Calm 29.79 1009 10 16.0934 0 0
4:15 pm 16:15 Cloudy 62 16.5 57 14.1 86 86 Calm 29.79 1009 10 16.0934 0 0
4:35 pm 16:35 Cloudy 62 16.6 58 14.2 86 86 SSE 3 6 29.79 1009 10 16.0934 0 0
4:55 pm 16:55 Mostly Cloudy 62 16.5 58 14.3 87 87 SE 3 6 29.8 1009 10 16.0934 0 0
5:35 pm 17:35 Sunny 62 16.6 57 13.9 84 84 S 5 7 29.78 1009 10 16.0934 0 0
5:55 pm 17:55 Sunny 62 16.6 57 14 85 85 SSE 3 6 29.77 1008 10 16.0934 0 0
6:15 pm 18:15 Sunny 62 16.6 58 14.2 86 86 S 5 7 29.77 1008 10 16.0934 0 0
6:35 pm 18:35 Sunny 62 16.7 57 14.1 85 85 S 5 7 29.77 1008 10 16.0934 0 0
6:55 pm 18:55 Sunny 62 16.7 56 13.5 82 82 SSW 5 7 29.77 1008 10 16.0934 0 0
7:15 pm 19:15 Sunny 62 16.9 57 14 83 83 Calm 29.77 1008 10 16.0934 0 0
7:35 pm 19:35 Sunny 62 16.8 58 14.4 86 86 Calm 29.77 1008 10 16.0934 0 0
7:55 pm 19:55 Sunny 62 16.6 58 14.5 88 88 Calm 29.78 1009 10 16.0934 0 0
8:15 pm 20:15 Sunny 62 16.5 57 14.1 86 86 Calm 29.78 1009 10 16.0934 0 0
8:35 pm 20:35 Sunny 61 15.9 57 14 89 89 Calm 29.79 1009 10 16.0934 0 0
8:55 pm 20:55 Sunny 60 15.5 57 13.8 90 90 Calm 29.78 1009 10 16.0934 0 0
9:15 pm 21:15 Clear 59 15 56 13.5 91 91 Calm 29.8 1009 10 16.0934 0 0
9:35 pm 21:35 Clear 58 14.3 56 13.2 93 93 Calm 29.8 1009 10 16.0934 0 0
9:55 pm 21:55 Clear 59 15.1 56 13.4 90 90 Calm 29.81 1009 10 16.0934 0 0
10:15 pm 22:15 Clear 56 13.2 55 12.6 96 96 E 3 6 29.82 1010 10 16.0934 0 0
10:35 pm 22:35 Clear 56 13.6 55 12.9 96 96 Calm 29.82 1010 10 16.0934 0 0
10:55 pm 22:55 Clear 55 12.6 54 12.1 97 97 Calm 29.84 1010 10 16.0934 0 0
11:15 pm 23:15 Clear 55 12.9 55 12.5 97 97 Calm 29.82 1010 10 16.0934 0 0
11:35 pm 23:35 Clear 55 12.5 53 11.9 96 96 Calm 29.83 1010 10 16.0934 0 0
11:55 pm 23:55 Mostly Cloudy with Mist and Fog 54 12 53 11.7 98 98 Calm 29.83 1010 1.5 2.41401 0 0

Powered by AerisWeather